Time[GMT],chlorophyll[micrograms/liter](3m),turbidity[ntus](3m)
2019-06-01 02:00,3.72,0.29
2019-06-01 03:00,3.69,0.29
2019-06-01 04:00,3.64,0.29
2019-06-01 05:00,3.52,0.29
2019-06-01 06:00,3.62,0.29
2019-06-01 07:00,3.40,0.29
2019-06-01 08:00,3.38,0.29
2019-06-01 09:00,3.35,0.28
2019-06-01 10:00,3.15,0.28
2019-06-01 11:00,3.13,0.28
2019-06-01 12:00,3.64,0.28
2019-06-01 13:00,3.42,0.28
2019-06-01 14:00,2.09,0.28
2019-06-01 15:00,2.66,0.29
2019-06-01 16:00,2.71,0.30
2019-06-01 17:00,2.04,0.29
2019-06-01 18:00,2.71,0.29
2019-06-01 19:00,2.83,0.29
2019-06-01 20:00,3.67,0.30
2019-06-01 21:00,3.90,0.30
2019-06-01 22:00,3.99,0.30
2019-06-01 23:00,3.75,0.29
2019-06-02 00:00,3.74,0.29
2019-06-02 01:00,3.64,0.29
2019-06-02 02:00,3.57,0.30
2019-06-02 03:00,3.43,0.29
2019-06-02 04:00,3.64,0.29
2019-06-02 05:00,3.49,0.29
2019-06-02 06:00,3.65,0.30
2019-06-02 07:00,3.50,0.29
2019-06-02 08:00,3.85,0.29
2019-06-02 09:00,3.45,0.29
2019-06-02 10:00,3.57,0.31
2019-06-02 11:00,3.84,0.31
2019-06-02 12:00,3.95,0.31
2019-06-02 13:00,4.39,0.33
2019-06-02 14:00,3.90,0.30
2019-06-02 15:00,3.35,0.30
2019-06-02 16:00,3.90,0.31
2019-06-02 17:00,1.96,0.31
2019-06-02 18:00,2.11,0.31
2019-06-02 19:00,2.58,0.31
2019-06-02 20:00,3.20,0.31
2019-06-02 21:00,3.92,0.32
2019-06-02 22:00,4.31,0.34
2019-06-02 23:00,4.36,0.35
2019-06-03 00:00,4.83,0.34
2019-06-03 01:00,4.34,0.32
2019-06-03 02:00,4.31,0.33
2019-06-03 03:00,4.11,0.33
2019-06-03 04:00,3.95,0.32
2019-06-03 05:00,4.05,0.33
2019-06-03 06:00,3.59,0.32
2019-06-03 07:00,3.70,0.35
2019-06-03 08:00,3.57,0.31
2019-06-03 09:00,3.28,0.30
2019-06-03 10:00,3.18,0.31
2019-06-03 11:00,3.42,0.31
2019-06-03 12:00,2.31,0.31
2019-06-03 13:00,2.13,0.32
2019-06-03 14:00,1.47,0.29
2019-06-03 15:00,1.54,0.29
2019-06-03 16:00,1.42,0.28
2019-06-03 17:00,1.36,0.27
2019-06-03 18:00,1.44,0.27
2019-06-03 19:00,1.47,0.27
2019-06-03 20:00,1.68,0.28
2019-06-03 21:00,2.20,0.28
2019-06-03 22:00,2.73,0.29
2019-06-03 23:00,3.33,0.28
2019-06-04 00:00,3.35,0.28
2019-06-04 01:00,3.49,0.29
2019-06-04 02:00,3.45,0.30
2019-06-04 03:00,3.72,0.30
2019-06-04 04:00,3.90,0.30
2019-06-04 05:00,4.22,0.32
2019-06-04 06:00,4.12,0.31
2019-06-04 07:00,4.16,0.32
2019-06-04 08:00,4.61,0.31
2019-06-04 09:00,4.21,0.30
2019-06-04 10:00,4.02,0.30
2019-06-04 11:00,3.62,0.28
2019-06-04 12:00,2.85,0.29
2019-06-04 13:00,2.41,0.30
2019-06-04 14:00,2.41,0.32
2019-06-04 15:00,2.25,0.31
2019-06-04 16:00,1.98,0.30
2019-06-04 17:00,2.35,0.29
2019-06-04 18:00,1.42,0.27
2019-06-04 19:00,1.24,0.26
2019-06-04 20:00,1.69,0.26
2019-06-04 21:00,2.82,0.26
2019-06-04 22:00,2.95,0.27
2019-06-04 23:00,3.10,0.27
2019-06-05 00:00,3.60,0.27
2019-06-05 01:00,3.70,0.27
2019-06-05 02:00,3.52,0.27
2019-06-05 03:00,3.65,0.27
2019-06-05 04:00,3.67,0.28
2019-06-05 05:00,3.55,0.27
2019-06-05 06:00,3.54,0.30
2019-06-05 07:00,3.57,0.28
2019-06-05 08:00,3.69,0.28
2019-06-05 09:00,3.52,0.28
2019-06-05 10:00,3.17,0.27
2019-06-05 11:00,3.05,0.28
2019-06-05 12:00,2.61,0.30
2019-06-05 13:00,1.94,0.31
2019-06-05 14:00,2.14,0.30
2019-06-05 15:00,1.61,0.29
2019-06-05 16:00,1.54,0.29
2019-06-05 17:00,1.56,0.29
2019-06-05 18:00,1.37,0.28
2019-06-05 19:00,1.17,0.27
2019-06-05 20:00,1.73,0.29
2019-06-05 21:00,1.76,0.31
2019-06-05 22:00,2.41,0.31
2019-06-05 23:00,2.51,0.31
2019-06-06 00:00,2.56,0.30
2019-06-06 01:00,2.61,0.31
2019-06-06 02:00,2.55,0.30
2019-06-06 03:00,2.48,0.30
2019-06-06 04:00,2.43,0.30
2019-06-06 05:00,2.28,0.30
2019-06-06 06:00,2.30,0.30
2019-06-06 07:00,2.26,0.30
2019-06-06 08:00,2.28,0.31
2019-06-06 09:00,2.21,0.32
2019-06-06 10:00,2.18,0.34
2019-06-06 11:00,2.38,0.33
2019-06-06 12:00,2.45,0.32
2019-06-06 13:00,2.31,0.32
2019-06-06 14:00,2.48,0.31
2019-06-06 15:00,1.49,0.31
2019-06-06 16:00,2.28,0.29
2019-06-06 17:00,2.82,0.28
2019-06-06 18:00,2.46,0.28
2019-06-06 19:00,1.56,0.27
2019-06-06 20:00,1.83,0.26
2019-06-06 21:00,2.45,0.28
2019-06-06 22:00,2.78,0.26
2019-06-06 23:00,3.18,0.28
2019-06-07 00:00,3.12,0.27
2019-06-07 01:00,3.30,0.28
2019-06-07 02:00,2.80,0.25
2019-06-07 03:00,2.78,0.26
2019-06-07 04:00,2.66,0.25
2019-06-07 05:00,2.60,0.24
2019-06-07 06:00,2.51,0.25
2019-06-07 07:00,2.41,0.24
2019-06-07 08:00,2.36,0.24
2019-06-07 09:00,2.48,0.27
2019-06-07 10:00,2.55,0.25
2019-06-07 11:00,2.68,0.25
2019-06-07 12:00,2.03,0.28
2019-06-07 13:00,1.94,0.29
2019-06-07 14:00,1.56,0.31
2019-06-07 15:00,1.46,0.28
2019-06-07 16:00,1.52,0.32
2019-06-07 17:00,1.58,0.28
2019-06-07 18:00,1.32,0.25
2019-06-07 19:00,1.36,0.26
2019-06-07 20:00,1.68,0.25
2019-06-07 21:00,1.94,0.26
2019-06-07 22:00,2.38,0.26
2019-06-07 23:00,2.76,0.26
2019-06-08 00:00,2.71,0.26
2019-06-08 01:00,2.58,0.26
2019-06-08 02:00,2.61,0.27
2019-06-08 03:00,2.55,0.26
2019-06-08 04:00,2.61,0.27
2019-06-08 05:00,2.73,0.28
2019-06-08 06:00,2.68,0.28
2019-06-08 07:00,2.65,0.28
2019-06-08 08:00,2.53,0.27
2019-06-08 09:00,2.68,0.28
2019-06-08 10:00,2.60,0.27
2019-06-08 11:00,2.61,0.27
2019-06-08 12:00,1.98,0.29
2019-06-08 13:00,1.84,0.30
2019-06-08 14:00,1.42,0.28
2019-06-08 15:00,1.19,0.27
2019-06-08 16:00,1.34,0.27
2019-06-08 17:00,1.37,0.28
2019-06-08 18:00,1.46,0.28
2019-06-08 19:00,1.54,0.28
2019-06-08 20:00,1.66,0.28
2019-06-08 21:00,1.86,0.26
2019-06-08 22:00,2.36,0.26
2019-06-08 23:00,2.73,0.27
2019-06-09 00:00,2.48,0.27
2019-06-09 01:00,2.48,0.28
2019-06-09 02:00,2.45,0.28
2019-06-09 03:00,2.45,0.28
2019-06-09 04:00,2.51,0.28
2019-06-09 05:00,2.50,0.28
2019-06-09 06:00,2.40,0.28
2019-06-09 07:00,2.40,0.28
2019-06-09 08:00,2.55,0.29
2019-06-09 09:00,2.40,0.29
2019-06-09 10:00,2.16,0.29
2019-06-09 11:00,2.66,0.30
2019-06-09 12:00,1.71,0.29
2019-06-09 13:00,1.71,0.30
2019-06-09 14:00,1.54,0.29
2019-06-09 15:00,1.36,0.30
2019-06-09 16:00,1.31,0.29
2019-06-09 17:00,1.54,0.30
2019-06-09 18:00,1.04,0.30
2019-06-09 19:00,1.21,0.38
2019-06-09 20:00,1.22,0.28
2019-06-09 21:00,1.46,0.28
2019-06-09 22:00,1.83,0.28
2019-06-09 23:00,2.16,0.30
2019-06-10 00:00,1.99,0.33
2019-06-10 01:00,1.98,0.30
2019-06-10 02:00,1.94,0.30
2019-06-10 03:00,1.93,0.30
2019-06-10 04:00,1.91,0.30
2019-06-10 05:00,1.91,0.32
2019-06-10 06:00,1.96,0.30
2019-06-10 07:00,1.89,0.30
2019-06-10 08:00,1.86,0.30
2019-06-10 09:00,1.86,0.31
2019-06-10 10:00,1.74,0.30
2019-06-10 11:00,1.71,0.30
2019-06-10 12:00,1.27,0.30
2019-06-10 13:00,1.09,0.29
2019-06-10 14:00,1.17,0.31
2019-06-10 15:00,1.07,0.29
2019-06-10 16:00,0.97,0.29
2019-06-10 17:00,1.29,0.30
2019-06-10 18:00,0.99,0.29
2019-06-10 19:00,1.04,0.30
2019-06-10 20:00,1.24,0.29
2019-06-10 21:00,1.14,0.28
2019-06-10 22:00,1.58,0.29
2019-06-10 23:00,1.73,0.28
2019-06-11 00:00,1.78,0.29
2019-06-11 01:00,1.81,0.28
2019-06-11 02:00,1.83,0.27
2019-06-11 03:00,1.84,0.27
2019-06-11 04:00,1.81,0.28
2019-06-11 05:00,1.78,0.28
2019-06-11 06:00,1.76,0.27
2019-06-11 07:00,1.74,0.27
2019-06-11 08:00,1.74,0.27
2019-06-11 09:00,1.69,0.27
2019-06-11 10:00,1.78,0.27
2019-06-11 11:00,1.88,0.28
2019-06-11 12:00,1.96,0.28
2019-06-11 13:00,2.09,0.28
2019-06-11 14:00,2.33,0.29
2019-06-11 15:00,2.53,0.29
2019-06-11 16:00,2.92,0.29
2019-06-11 17:00,2.70,0.30
2019-06-11 18:00,2.14,0.31
2019-06-11 19:00,1.88,0.31
2019-06-11 20:00,1.98,0.32
2019-06-11 21:00,2.16,0.33
2019-06-11 22:00,2.70,0.34
2019-06-11 23:00,3.03,0.34
2019-06-12 00:00,2.87,0.33
2019-06-12 01:00,2.78,0.33
2019-06-12 02:00,2.76,0.33
2019-06-12 03:00,2.76,0.33
2019-06-12 04:00,2.71,0.31
2019-06-12 05:00,2.63,0.29
2019-06-12 06:00,2.65,0.29
2019-06-12 07:00,2.55,0.29
2019-06-12 08:00,2.48,0.30
2019-06-12 09:00,2.41,0.29
2019-06-12 10:00,2.45,0.29
2019-06-12 11:00,2.09,0.31
2019-06-12 12:00,1.46,0.32
2019-06-12 13:00,1.17,0.32
2019-06-12 14:00,0.96,0.30
2019-06-12 15:00,1.06,0.30
2019-06-12 16:00,1.16,0.30
2019-06-12 17:00,1.21,0.28
2019-06-12 18:00,1.17,0.29
2019-06-12 19:00,1.09,0.29
2019-06-12 20:00,1.46,0.32
2019-06-12 21:00,1.69,0.29
2019-06-12 22:00,2.40,0.31
2019-06-12 23:00,2.41,0.29
2019-06-13 00:00,2.51,0.29
2019-06-13 01:00,2.48,0.29
2019-06-13 02:00,2.41,0.29
2019-06-13 03:00,2.03,0.28
2019-06-13 04:00,2.01,0.39
2019-06-13 05:00,2.11,0.32
2019-06-13 06:00,2.04,0.33
2019-06-13 07:00,2.03,0.31
2019-06-13 08:00,2.04,0.31
2019-06-13 09:00,2.01,0.31
2019-06-13 10:00,2.01,0.30
2019-06-13 11:00,2.09,0.28
2019-06-13 12:00,2.36,0.27
2019-06-13 13:00,2.66,0.29
2019-06-13 14:00,2.87,0.29
2019-06-13 15:00,3.35,0.30
2019-06-13 16:00,3.70,0.30
2019-06-13 17:00,4.00,0.30
2019-06-13 18:00,4.34,0.30
2019-06-13 19:00,4.22,0.31
2019-06-13 20:00,4.34,0.31
2019-06-13 21:00,4.41,0.31
2019-06-13 22:00,4.61,0.31
2019-06-13 23:00,4.57,0.31
2019-06-14 00:00,4.31,0.30
2019-06-14 01:00,3.85,0.29
2019-06-14 02:00,3.82,0.29
2019-06-14 03:00,3.59,0.29
2019-06-14 04:00,3.38,0.29
2019-06-14 05:00,3.47,0.28
2019-06-14 06:00,3.45,0.28
2019-06-14 07:00,3.32,0.29
2019-06-14 08:00,3.17,0.28
2019-06-14 09:00,3.07,0.27
2019-06-14 10:00,3.18,0.27
2019-06-14 11:00,3.27,0.27
2019-06-14 12:00,3.50,0.28
2019-06-14 13:00,2.16,0.28
2019-06-14 14:00,2.06,0.28
2019-06-14 15:00,1.93,0.28
2019-06-14 16:00,1.66,0.27
2019-06-14 17:00,2.48,0.28
2019-06-14 18:00,1.58,0.28
2019-06-14 19:00,2.41,0.28
2019-06-14 20:00,1.84,0.28
2019-06-14 21:00,2.56,0.28
2019-06-14 22:00,2.90,0.29
2019-06-14 23:00,3.54,0.30
2019-06-15 00:00,3.25,0.30
2019-06-15 01:00,3.13,0.30
2019-06-15 02:00,3.03,0.29
2019-06-15 03:00,2.76,0.30
2019-06-15 04:00,2.68,0.29
2019-06-15 05:00,2.53,0.31
2019-06-15 06:00,2.55,0.31
2019-06-15 07:00,2.58,0.31
2019-06-15 08:00,2.50,0.32
2019-06-15 09:00,2.82,0.37
2019-06-15 10:00,3.00,0.37
2019-06-15 11:00,2.93,0.33
2019-06-15 12:00,2.25,0.33
2019-06-15 13:00,2.14,0.32
2019-06-15 14:00,1.91,0.34
2019-06-15 15:00,2.08,0.35
2019-06-15 16:00,2.16,0.35
2019-06-15 17:00,2.04,0.35
2019-06-15 18:00,1.69,0.35
2019-06-15 19:00,1.94,0.35
2019-06-15 20:00,2.23,0.35
2019-06-15 21:00,2.46,0.36
2019-06-15 22:00,3.02,0.36
2019-06-15 23:00,3.18,0.35
2019-06-16 00:00,3.13,0.35
2019-06-16 01:00,3.18,0.34
2019-06-16 02:00,3.03,0.34
2019-06-16 03:00,2.90,0.35
2019-06-16 04:00,2.75,0.33
2019-06-16 05:00,2.55,0.31
2019-06-16 06:00,2.63,0.31
2019-06-16 07:00,2.40,0.30
2019-06-16 08:00,2.26,0.29
2019-06-16 09:00,2.13,0.28
2019-06-16 10:00,2.38,0.29
2019-06-16 11:00,2.20,0.28
2019-06-16 12:00,2.43,0.29
2019-06-16 13:00,2.60,0.30
2019-06-16 14:00,3.35,0.34
2019-06-16 15:00,3.40,0.34
2019-06-16 16:00,3.33,0.34
2019-06-16 17:00,3.95,0.35
2019-06-16 18:00,4.59,0.35
2019-06-16 19:00,3.82,0.35
2019-06-16 20:00,4.32,0.35
2019-06-16 21:00,4.79,0.36
2019-06-16 22:00,5.36,0.38
2019-06-16 23:00,5.06,0.35
2019-06-17 00:00,4.34,0.35
2019-06-17 01:00,3.59,0.32
2019-06-17 02:00,3.08,0.30
2019-06-17 03:00,3.08,0.30
2019-06-17 04:00,2.90,0.29
2019-06-17 05:00,2.85,0.30
2019-06-17 06:00,2.63,0.29
2019-06-17 07:00,2.63,0.29
2019-06-17 08:00,2.31,0.28
2019-06-17 09:00,2.43,0.28
2019-06-17 10:00,2.41,0.28
2019-06-17 11:00,2.26,0.29
2019-06-17 12:00,1.93,0.29
2019-06-17 13:00,1.52,0.30
2019-06-17 14:00,1.32,0.29
2019-06-17 15:00,1.46,0.30
2019-06-17 16:00,1.24,0.29
2019-06-17 17:00,1.19,0.29
2019-06-17 18:00,1.36,0.30
2019-06-17 19:00,2.21,0.35
2019-06-17 20:00,2.53,0.42
2019-06-17 21:00,3.17,0.41
2019-06-17 22:00,3.40,0.35
2019-06-17 23:00,4.11,0.40
2019-06-18 00:00,3.60,0.39
2019-06-18 01:00,2.90,0.35
2019-06-18 02:00,2.25,0.29
2019-06-18 03:00,2.36,0.31
2019-06-18 04:00,2.38,0.31
2019-06-18 05:00,2.09,0.29
2019-06-18 06:00,2.06,0.29
2019-06-18 07:00,1.99,0.29
2019-06-18 08:00,2.14,0.29
2019-06-18 09:00,2.46,0.30
2019-06-18 10:00,2.75,0.31
2019-06-18 11:00,2.98,0.31
2019-06-18 12:00,2.93,0.31
2019-06-18 13:00,2.25,0.28
2019-06-18 14:00,3.18,0.33
2019-06-18 15:00,2.70,0.32
2019-06-18 16:00,3.50,0.35
2019-06-18 17:00,4.00,0.35
2019-06-18 18:00,3.97,0.34
2019-06-18 19:00,3.50,0.35
2019-06-18 20:00,3.95,0.34
2019-06-18 21:00,3.74,0.34
2019-06-18 22:00,3.95,0.35
2019-06-18 23:00,4.07,0.34
2019-06-19 00:00,4.78,0.38
2019-06-19 01:00,3.62,0.33
2019-06-19 02:00,3.33,0.33
2019-06-19 03:00,2.90,0.32
2019-06-19 04:00,2.78,0.31
2019-06-19 05:00,2.68,0.30
2019-06-19 06:00,2.70,0.31
2019-06-19 07:00,2.98,0.31
2019-06-19 08:00,2.78,0.31
2019-06-19 09:00,2.55,0.31
2019-06-19 10:00,2.51,0.31
2019-06-19 11:00,2.51,0.30
2019-06-19 12:00,2.56,0.29
2019-06-19 13:00,2.53,0.30
2019-06-19 14:00,2.04,0.30
2019-06-19 15:00,1.86,0.31
2019-06-19 16:00,2.25,0.31
2019-06-19 17:00,1.98,0.31
2019-06-19 18:00,1.91,0.31
2019-06-19 19:00,1.47,0.34
2019-06-19 20:00,1.96,0.35
2019-06-19 21:00,1.81,0.30
2019-06-19 22:00,2.50,0.31
2019-06-19 23:00,2.63,0.30
2019-06-20 00:00,2.75,0.31
2019-06-20 01:00,2.71,0.31
2019-06-20 02:00,2.68,0.31
2019-06-20 03:00,2.56,0.30
2019-06-20 04:00,2.50,0.31
2019-06-20 05:00,2.51,0.31
2019-06-20 06:00,2.55,0.31
2019-06-20 07:00,2.45,0.30
2019-06-20 08:00,2.41,0.30
2019-06-20 09:00,2.45,0.30
2019-06-20 10:00,2.85,0.33
2019-06-20 11:00,3.10,0.33
2019-06-20 12:00,3.28,0.33
2019-06-20 13:00,3.17,0.33
2019-06-20 14:00,3.50,0.33
2019-06-20 15:00,3.80,0.33
2019-06-20 16:00,3.82,0.34
2019-06-20 17:00,4.16,0.34
2019-06-20 18:00,4.29,0.34
2019-06-20 19:00,4.37,0.34
2019-06-20 20:00,4.22,0.34
2019-06-20 21:00,4.47,0.36
2019-06-20 22:00,4.73,0.36
2019-06-20 23:00,4.59,0.36
2019-06-21 00:00,4.61,0.36
2019-06-21 01:00,4.64,0.37
2019-06-21 02:00,5.04,0.39
2019-06-21 03:00,5.70,0.41
2019-06-21 04:00,5.75,0.40
2019-06-21 05:00,5.55,0.40
2019-06-21 06:00,5.55,0.40
2019-06-21 07:00,5.41,0.39
2019-06-21 08:00,5.21,0.38
2019-06-21 09:00,5.40,0.38
2019-06-21 10:00,5.38,0.38
2019-06-21 11:00,5.43,0.37
2019-06-21 12:00,5.68,0.39
2019-06-21 13:00,4.94,0.37
2019-06-21 14:00,4.83,0.37
2019-06-21 15:00,4.16,0.36
2019-06-21 16:00,2.35,0.34
2019-06-21 17:00,2.20,0.34
2019-06-21 18:00,2.18,0.34
2019-06-21 19:00,3.75,0.35
2019-06-21 20:00,4.54,0.37
2019-06-21 21:00,5.18,0.39
2019-06-21 22:00,5.04,0.39
2019-06-21 23:00,5.14,0.39
2019-06-22 00:00,4.88,0.39
2019-06-22 01:00,5.03,0.39
2019-06-22 02:00,7.27,0.41
2019-06-22 03:00,4.39,0.38
2019-06-22 04:00,3.84,0.37
2019-06-22 05:00,3.77,0.37
2019-06-22 06:00,3.87,0.37
2019-06-22 07:00,3.82,0.37
2019-06-22 08:00,3.89,0.37
2019-06-22 09:00,4.26,0.40
2019-06-22 10:00,4.62,0.43
2019-06-22 11:00,5.38,0.46
2019-06-22 12:00,5.35,0.49
2019-06-22 13:00,4.19,0.50
2019-06-22 14:00,2.66,0.42
2019-06-22 15:00,2.55,0.41
2019-06-22 16:00,3.30,0.49
2019-06-22 17:00,3.55,0.49
2019-06-22 18:00,4.09,0.52
2019-06-22 19:00,6.35,0.58
2019-06-22 20:00,8.70,0.61
2019-06-22 21:00,9.30,0.65
2019-06-22 22:00,10.42,0.66
2019-06-22 23:00,10.20,0.64
2019-06-23 00:00,9.40,0.64
2019-06-23 01:00,8.06,0.61
2019-06-23 02:00,6.42,0.52
2019-06-23 03:00,7.10,0.51
2019-06-23 04:00,6.20,0.48
2019-06-23 05:00,6.03,0.49
2019-06-23 06:00,6.25,0.51
2019-06-23 07:00,6.62,0.55
2019-06-23 08:00,7.64,0.60
2019-06-23 09:00,7.07,0.61
2019-06-23 10:00,8.11,0.64
2019-06-23 11:00,8.23,0.65
2019-06-23 12:00,7.17,0.62
2019-06-23 13:00,6.02,0.60
2019-06-23 14:00,4.47,0.56
2019-06-23 15:00,4.24,0.57
2019-06-23 16:00,4.36,0.59
2019-06-23 17:00,4.61,0.60
2019-06-23 18:00,4.99,0.60
2019-06-23 19:00,5.41,0.55
2019-06-23 20:00,6.72,0.50
2019-06-23 21:00,5.01,0.48
2019-06-23 22:00,6.97,0.55
2019-06-23 23:00,6.27,0.51
2019-06-24 00:00,6.60,0.54
2019-06-24 01:00,6.53,0.53
2019-06-24 02:00,6.59,0.52
2019-06-24 03:00,7.19,0.57
2019-06-24 04:00,6.82,0.56
2019-06-24 05:00,7.49,0.55
2019-06-24 06:00,6.64,0.52
2019-06-24 07:00,6.32,0.53
2019-06-24 08:00,6.05,0.52
2019-06-24 09:00,6.48,0.55
2019-06-24 10:00,6.43,0.51
2019-06-24 11:00,6.28,0.49
2019-06-24 12:00,4.91,0.49
2019-06-24 13:00,3.60,0.58
2019-06-24 14:00,2.98,0.59
2019-06-24 15:00,2.68,0.58
2019-06-24 16:00,2.09,0.44
2019-06-24 17:00,2.30,0.44
2019-06-24 18:00,2.50,0.43
2019-06-24 19:00,2.33,0.44
2019-06-24 20:00,2.68,0.45
2019-06-24 21:00,3.90,0.47
2019-06-24 22:00,4.79,0.49
2019-06-24 23:00,6.22,0.54
2019-06-25 00:00,6.53,0.59
2019-06-25 01:00,6.62,0.58
2019-06-25 02:00,6.80,0.58
2019-06-25 03:00,6.90,0.58
2019-06-25 04:00,7.02,0.58
2019-06-25 05:00,7.22,0.58
2019-06-25 06:00,7.04,0.57
2019-06-25 07:00,6.77,0.57
2019-06-25 08:00,6.33,0.55
2019-06-25 09:00,6.40,0.54
2019-06-25 10:00,6.30,0.55
2019-06-25 11:00,6.23,0.54
2019-06-25 12:00,5.35,0.58
2019-06-25 13:00,4.44,0.57
2019-06-25 14:00,4.05,0.57
2019-06-25 15:00,5.71,0.56
2019-06-25 16:00,5.38,0.56
2019-06-25 17:00,5.95,0.56
2019-06-25 18:00,6.00,0.56
2019-06-25 19:00,6.72,0.56
2019-06-25 20:00,7.41,0.57
2019-06-25 21:00,7.31,0.56
2019-06-25 22:00,7.32,0.57
2019-06-25 23:00,7.10,0.58
2019-06-26 00:00,7.07,0.58
2019-06-26 01:00,6.72,0.58
2019-06-26 02:00,6.45,0.58
2019-06-26 03:00,6.75,0.59
2019-06-26 04:00,6.84,0.59
2019-06-26 05:00,6.33,0.55
2019-06-26 06:00,6.12,0.54
2019-06-26 07:00,5.68,0.53
2019-06-26 08:00,5.58,0.52
2019-06-26 09:00,5.50,0.51
2019-06-26 10:00,5.24,0.50
2019-06-26 11:00,3.62,0.42
2019-06-26 12:00,2.23,0.37
2019-06-26 13:00,2.20,0.38
2019-06-26 14:00,1.51,0.35
2019-06-26 15:00,2.25,0.37
2019-06-26 16:00,2.50,0.41
2019-06-26 17:00,2.60,0.45
2019-06-26 18:00,2.04,0.40
2019-06-26 19:00,1.66,0.40
2019-06-26 20:00,2.73,0.43
2019-06-26 21:00,2.36,0.44
2019-06-26 22:00,3.65,0.44
2019-06-26 23:00,4.07,0.44
2019-06-27 00:00,3.94,0.44
2019-06-27 01:00,3.90,0.44
2019-06-27 02:00,3.84,0.44
2019-06-27 03:00,3.85,0.44
2019-06-27 04:00,3.95,0.45
2019-06-27 05:00,3.95,0.44
2019-06-27 06:00,3.84,0.44
2019-06-27 07:00,3.43,0.41
2019-06-27 08:00,4.69,0.47
2019-06-27 09:00,4.21,0.45
2019-06-27 10:00,4.16,0.44
2019-06-27 11:00,3.90,0.42
2019-06-27 12:00,3.97,0.43
2019-06-27 13:00,3.75,0.44
2019-06-27 14:00,3.35,0.47
2019-06-27 15:00,3.07,0.49
2019-06-27 16:00,2.21,0.45
2019-06-27 17:00,2.35,0.46
2019-06-27 18:00,2.56,0.46
2019-06-27 19:00,2.51,0.47
2019-06-27 20:00,3.17,0.50
2019-06-27 21:00,3.82,0.47
2019-06-27 22:00,3.89,0.45
2019-06-27 23:00,4.12,0.44
2019-06-28 00:00,4.22,0.45
2019-06-28 01:00,4.21,0.45
2019-06-28 02:00,3.74,0.42
2019-06-28 03:00,4.29,0.47
2019-06-28 04:00,4.24,0.48
2019-06-28 05:00,4.04,0.46
2019-06-28 06:00,3.87,0.44
2019-06-28 07:00,3.49,0.39
2019-06-28 08:00,3.05,0.36
2019-06-28 09:00,2.90,0.36
2019-06-28 10:00,2.75,0.35
2019-06-28 11:00,2.55,0.34
2019-06-28 12:00,2.33,0.34
2019-06-28 13:00,1.98,0.34
2019-06-28 14:00,1.68,0.33
2019-06-28 15:00,1.37,0.33
2019-06-28 16:00,1.31,0.32
2019-06-28 17:00,1.24,0.33
2019-06-28 18:00,1.27,0.32
2019-06-28 19:00,1.34,0.33
2019-06-28 20:00,1.54,0.32
2019-06-28 21:00,1.58,0.32
2019-06-28 22:00,1.79,0.31
2019-06-29 00:00,2.14,0.32
2019-06-29 01:00,2.31,0.33
2019-06-29 02:00,2.41,0.33
2019-06-29 03:00,2.65,0.35
2019-06-29 04:00,2.56,0.35
2019-06-29 05:00,2.40,0.34
2019-06-29 06:00,2.50,0.35
2019-06-29 07:00,2.60,0.36
2019-06-29 08:00,2.56,0.36
2019-06-29 09:00,2.88,0.39
2019-06-29 10:00,2.98,0.41
2019-06-29 11:00,3.07,0.42
2019-06-29 12:00,3.07,0.42
2019-06-29 13:00,3.15,0.42
2019-06-29 14:00,2.65,0.40
2019-06-29 15:00,3.02,0.42
2019-06-29 16:00,2.61,0.41
2019-06-29 17:00,2.46,0.41
2019-06-29 18:00,2.40,0.41
2019-06-29 20:00,4.22,0.45
2019-06-29 21:00,5.14,0.46
2019-06-29 22:00,4.73,0.43
2019-06-29 23:00,4.44,0.44
2019-06-30 00:00,4.21,0.43
2019-06-30 01:00,4.54,0.46
2019-06-30 02:00,3.95,0.46
2019-06-30 03:00,4.05,0.46
2019-06-30 04:00,3.89,0.44
2019-06-30 05:00,3.38,0.44
2019-06-30 06:00,2.97,0.41
2019-06-30 07:00,2.82,0.41
2019-06-30 08:00,3.27,0.41
2019-06-30 10:00,2.90,0.40
2019-06-30 11:00,2.51,0.40
2019-06-30 12:00,2.30,0.41
2019-06-30 13:00,2.43,0.41
2019-06-30 14:00,1.59,0.40
2019-06-30 15:00,1.41,0.39
2019-06-30 16:00,2.36,0.40
2019-06-30 17:00,2.51,0.41
2019-06-30 18:00,2.56,0.42
2019-06-30 19:00,3.50,0.45
2019-06-30 20:00,3.38,0.43
2019-06-30 21:00,3.18,0.42
2019-06-30 23:00,3.65,0.45
2019-07-01 00:00,3.42,0.43
2019-07-01 01:00,3.27,0.44
2019-07-01 02:00,3.23,0.42
2019-07-01 03:00,3.45,0.42
2019-07-01 04:00,3.57,0.41
2019-07-01 05:00,3.38,0.38
2019-07-01 06:00,3.57,0.37
2019-07-01 07:00,3.50,0.37
2019-07-01 08:00,3.38,0.37
2019-07-01 09:00,3.35,0.38
2019-07-01 10:00,3.12,0.37
2019-07-01 12:00,2.06,0.38
2019-07-01 13:00,1.73,0.37
2019-07-01 14:00,1.44,0.35
2019-07-01 15:00,1.31,0.32
2019-07-01 16:00,1.98,0.38
2019-07-01 17:00,1.76,0.33
2019-07-01 18:00,1.73,0.33
2019-07-01 19:00,1.14,0.28
2019-07-01 20:00,1.47,0.30
2019-07-01 21:00,1.73,0.32
2019-07-01 22:00,2.08,0.32
2019-07-01 23:00,2.35,0.31
2019-07-02 01:00,2.80,0.33
2019-07-02 02:00,2.97,0.34
2019-07-02 03:00,3.57,0.38
2019-07-02 04:00,3.45,0.37
2019-07-02 05:00,2.41,0.32
2019-07-02 06:00,2.23,0.31
2019-07-02 07:00,2.51,0.34
2019-07-02 08:00,2.56,0.35
2019-07-02 09:00,2.98,0.37
2019-07-02 10:00,2.65,0.36
2019-07-02 11:00,2.93,0.39
2019-07-02 12:00,2.98,0.41
2019-07-02 13:00,2.31,0.38
2019-07-02 15:00,1.78,0.41
2019-07-02 16:00,2.26,0.45
2019-07-02 17:00,2.45,0.44
2019-07-02 18:00,1.78,0.42
2019-07-02 19:00,1.94,0.43
2019-07-02 20:00,2.13,0.43
2019-07-02 21:00,2.38,0.43
2019-07-02 22:00,2.58,0.42
2019-07-03 00:00,2.95,0.41
2019-07-03 01:00,3.13,0.41
2019-07-03 02:00,3.13,0.42
2019-07-03 03:00,3.08,0.40
2019-07-03 04:00,2.88,0.40
2019-07-03 05:00,2.73,0.40
2019-07-03 06:00,2.51,0.39
2019-07-03 07:00,2.21,0.36
2019-07-03 09:00,2.58,0.37
2019-07-03 10:00,2.25,0.36
2019-07-03 11:00,2.18,0.37
2019-07-03 12:00,2.03,0.39
2019-07-03 13:00,1.52,0.38
2019-07-03 14:00,1.52,0.39
2019-07-03 15:00,1.63,0.39
2019-07-03 17:00,1.34,0.38
2019-07-03 18:00,1.16,0.37
2019-07-03 19:00,1.22,0.39
2019-07-03 20:00,1.27,0.40
2019-07-03 21:00,1.59,0.38
2019-07-03 22:00,1.96,0.40
2019-07-04 00:00,2.38,0.39
2019-07-04 01:00,2.51,0.40
2019-07-04 02:00,2.60,0.40
2019-07-04 03:00,2.51,0.40
2019-07-04 04:00,2.65,0.40
2019-07-04 05:00,2.60,0.42
2019-07-04 07:00,2.40,0.40
2019-07-04 08:00,1.93,0.37
2019-07-04 09:00,2.11,0.39
2019-07-04 10:00,2.13,0.39
2019-07-04 11:00,1.99,0.39
2019-07-04 12:00,1.59,0.39
2019-07-04 14:00,1.27,0.39
2019-07-04 15:00,1.32,0.40
2019-07-04 16:00,1.56,0.40
2019-07-04 17:00,1.31,0.38
2019-07-04 18:00,1.47,0.38
2019-07-04 19:00,1.44,0.37
2019-07-04 21:00,1.78,0.39
2019-07-04 22:00,1.98,0.41
2019-07-04 23:00,1.91,0.39
2019-07-05 00:00,2.11,0.39
2019-07-05 01:00,2.14,0.40
2019-07-05 02:00,2.53,0.42
2019-07-05 03:00,3.77,0.48
2019-07-05 04:00,3.28,0.48
2019-07-05 05:00,2.40,0.43
2019-07-05 06:00,2.31,0.42
2019-07-05 07:00,1.89,0.40
2019-07-05 09:00,2.03,0.39
2019-07-05 10:00,2.45,0.42
2019-07-05 11:00,2.04,0.39
2019-07-05 12:00,1.69,0.40
2019-07-05 13:00,1.54,0.40
2019-07-05 15:00,1.49,0.42
2019-07-05 16:00,2.14,0.48
2019-07-05 17:00,1.36,0.44
2019-07-05 18:00,1.02,0.40
2019-07-05 19:00,1.17,0.39
2019-07-05 21:00,1.49,0.40
2019-07-05 22:00,1.83,0.39
2019-07-05 23:00,2.18,0.39
2019-07-06 00:00,2.43,0.41
2019-07-06 02:00,2.48,0.40
2019-07-06 03:00,2.50,0.41
2019-07-06 04:00,2.43,0.40
2019-07-06 05:00,2.36,0.40
2019-07-06 06:00,2.31,0.40
2019-07-06 08:00,2.55,0.42
2019-07-06 09:00,2.43,0.41
2019-07-06 10:00,2.26,0.41
2019-07-06 11:00,2.25,0.43
2019-07-06 12:00,1.98,0.42
2019-07-06 14:00,1.71,0.43
2019-07-06 15:00,1.64,0.44
2019-07-06 16:00,1.54,0.44
2019-07-06 17:00,1.73,0.44
2019-07-06 18:00,1.52,0.43
2019-07-06 20:00,1.61,0.42
2019-07-06 21:00,2.38,0.43
2019-07-06 22:00,2.53,0.43
2019-07-06 23:00,2.65,0.43
2019-07-07 00:00,2.73,0.46
2019-07-07 02:00,3.00,0.46
2019-07-07 03:00,3.15,0.45
2019-07-07 04:00,3.18,0.45
2019-07-07 05:00,3.32,0.46
2019-07-07 06:00,3.25,0.46
2019-07-07 07:00,3.65,0.48
2019-07-07 09:00,4.02,0.46
2019-07-07 10:00,4.16,0.46
2019-07-07 11:00,4.27,0.45
2019-07-07 12:00,3.84,0.44
2019-07-07 13:00,3.12,0.42
2019-07-07 14:00,2.63,0.42